Location: ??
(35.4032°N, 139.3073°E)
Time: 10:23:27
(UTC+00:00)

Sakura Rocket - Pass Details

Date: 13 April 2024
Orbit: 475 x 1716 km, 28.7° (Epoch: 21 May)

Event Time Altitude Azimuth Distance (km) Brightness Sun altitude
Exits shadow 18:44:10 18° 178° (S) 1,242 4.4 -17.7°
Drops below altitude 10° 18:46:07 10° 147° (SSE) 1,684 5.4 -17.3°
Sets 18:48:53 0° 129° (SE) 2,657 6.7 -16.8°
